RH
100 94 99 91 87 77 73 71 69 65 58 48 41 41 45 61 53 52 50 51 49 43 37 34 20 17 40 76 72 57 52 54 64 76 80 82 82 72 67 74 79 72 73
100 100 99 95 88 80 72 63 62 58 63 77 79 73 75 75 78 71 69 64 60 54 47 43 33 19 22 56 68 60 62 56 57 67 81 79 84 85 80 77 78 77 77
100 100 98 100 99 96 92 89 86 85 82 78 79 80 81 75 73 76 73 67 66 65 59 53 48 40 22 30 62 66 66 67 58 50 61 81 82 84 85 83 84 82 76
97 99 96 99 99 98 97 94 90 84 79 79 84 82 82 79 78 76 74 74 73 72 70 66 60 52 48 26 29 53 74 79 80 69 48 48 84 86 86 86 86 84 74
75 74 78 86 80 84 82 78 72 70 68 70 71 76 86 86 83 84 85 84 81 78 76 76 72 68 57 54 42 24 38 59 76 80 81 65 67 72 77 87 86 82 68
67 57 50 52 48 47 50 53 53 53 54 56 64 70 71 73 84 83 84 86 88 88 87 84 78 77 72 68 56 55 40 27 34 52 69 77 80 75 71 47 40 43 48
71 61 50 44 41 36 35 32 31 31 32 32 32 34 40 56 69 76 79 81 82 79 79 81 87 83 81 78 78 69 54 52 41 29 25 40 64 77 82 76 48 37 34
72 69 61 55 48 42 38 37 37 37 37 36 37 37 39 44 49 52 53 58 64 69 68 64 60 73 82 82 82 81 81 69 49 46 37 24 25 49 78 89 65 40 34
66 68 64 57 53 51 52 50 50 49 47 48 47 46 46 47 48 48 48 49 48 49 53 52 49 48 67 77 81 84 86 83 81 53 46 36 27 35 55 83 92 53 42
59 58 58 61 61 59 56 56 55 53 53 52 54 52 50 51 48 46 46 45 48 53 58 61 56 50 46 60 78 82 81 86 89 82 63 51 40 39 60 79 95 74 53
66 61 59 61 61 61 61 58 59 59 60 62 60 59 58 55 56 57 57 60 65 67 67 66 63 61 58 59 63 75 75 77 80 87 90 69 56 46 54 69 82 94 60
71 66 63 59 57 58 60 64 64 66 66 64 62 61 59 58 59 61 60 59 63 66 66 66 65 65 65 63 63 67 72 75 73 77 84 94 76 60 62 51 63 83 88
67 63 58 56 56 58 60 60 58 56 56 55 55 53 54 55 54 55 56 56 55 54 53 53 55 58 60 63 64 68 71 77 80 76 75 86 91 84 65 75 55 66 82
54 53 54 56 55 53 51 49 46 43 39 36 34 34 35 36 38 41 46 49 52 54 56 57 57 56 55 60 64 67 69 72 69 74 76 77 89 87 84 62 75 66 66
38 36 34 32 30 28 25 24 24 24 23 22 21 21 21 21 22 21 22 22 22 23 26 30 37 44 51 56 56 56 57 61 66 68 69 61 72 80 81 76 63 75 73
26 25 24 23 22 22 23 22 22 21 20 20 20 20 20 19 18 17 17 16 16 16 16 17 18 20 22 25 32 44 54 56 52 52 54 56 57 54 70 91 66 64 67
22 22 21 21 21 21 21 21 21 21 21 20 19 18 16 15 14 12 11 10 10 10 9 9 10 11 13 14 16 20 23 31 44 53 50 45 43 45 45 68 93 90 82
22 21 21 21 21 21 21 22 21 21 20 18 17 14 12 11 9 8 7 7 6 6 5 5 5 5 5 5 7 10 13 15 19 24 33 47 49 43 38 42 63 84 98
22 22 22 22 22 22 22 22 22 21 20 17 14 12 10 9 9 8 7 6 5 4 4 4 4 4 4 3 3 3 4 5 8 12 14 19 28 44 49 40 42 60 81
24 23 23 23 23 23 24 24 23 21 18 14 12 10 9 8 6 5 4 4 4 4 4 5 5 4 5 5 4 3 3 2 3 3 5 7 9 16 26 47 47 43 53
25 24 24 24 24 24 25 26 26 23 15 13 11 9 7 6 6 6 6 6 7 7 8 8 9 9 8 9 7 5 3 3 3 3 3 4 12 25 29 32 53 55 50
26 26 25 25 25 26 26 25 20 16 14 12 10 8 7 7 8 8 9 9 10 10 10 11 12 13 14 15 18 21 23 13 18 31 35 29 31 51 58 79 76 80 74
29 28 27 27 27 27 25 21 18 15 13 10 9 8 9 11 11 12 12 12 12 13 14 15 16 18 21 20 22 38 53 36 41 18 20 10 12 14 72 93 94 93 93
32 31 30 29 28 27 23 19 16 14 12 12 14 13 12 13 13 13 14 14 16 18 19 21 23 26 26 26 27 31 44 74 67 48 35 30 11 7 7 9 28 39 56
34 33 32 31 29 26 21 17 15 14 15 15 16 15 15 14 13 14 14 16 18 20 23 26 28 30 32 36 38 38 43 54 76 78 68 59 60 45 15 9 7 6 8
36 35 34 32 29 24 20 17 16 16 17 17 17 16 15 15 14 14 16 18 20 23 25 28 32 36 39 41 46 54 63 70 76 75 71 65 71 66 36 18 13 10 8
Wind_Speed
15 15 21 11 11 11 11 12 12 12 12 13 14 14 14 13 13 13 13 14 15 15 16 16 15 13 9 9 10 9 8 7 6 6 6 7 7 8 9 10 8 9 9
15 17 22 12 12 11 11 11 11 12 12 13 13 14 12 11 11 12 12 13 14 14 14 14 15 13 11 8 7 8 8 6 6 5 5 4 6 6 7 8 8 6 6
6 5 16 14 12 14 13 12 12 12 12 12 12 12 11 10 9 10 11 11 12 13 13 13 13 12 11 7 5 5 6 7 6 4 3 4 3 4 4 5 6 6 5
8 7 15 13 10 12 12 13 10 9 8 8 9 10 10 10 10 9 9 10 10 11 11 11 11 11 10 9 5 3 4 6 6 4 2 2 3 2 2 4 5 4 3
6 8 12 12 9 8 9 9 6 6 7 6 6 6 8 9 9 9 9 9 9 9 10 9 9 8 8 8 8 6 3 4 5 5 4 1 1 2 3 3 3 4 5
6 8 8 10 8 7 7 7 8 9 8 8 8 7 6 5 5 5 5 6 7 7 9 9 9 8 7 7 7 7 7 6 6 7 7 5 5 4 4 5 7 8 7
4 6 6 6 6 6 6 7 8 8 8 8 8 7 6 6 6 7 8 8 8 8 9 7 7 8 7 7 7 8 8 8 8 8 9 10 9 9 8 8 7 7 7
3 3 4 4 5 5 7 7 7 7 8 9 9 9 8 8 8 9 10 10 11 11 11 11 11 10 9 8 7 8 9 10 9 9 10 10 11 13 11 11 9 9 9
2 2 2 3 4 4 4 5 6 6 6 7 7 8 8 9 9 10 11 11 11 11 12 13 13 12 10 10 9 9 10 10 10 11 10 10 12 13 14 12 13 11 11
2 3 3 3 3 4 5 5 6 7 7 7 7 8 8 9 10 10 11 11 11 11 11 12 13 13 13 13 12 12 13 12 12 12 12 12 12 13 14 13 11 13 12
4 3 3 3 3 4 4 6 6 7 7 8 9 10 10 10 11 11 12 12 12 13 14 14 14 13 13 13 14 14 15 15 15 15 14 13 14 14 15 15 12 14 14
2 3 4 4 4 4 5 5 7 7 8 9 10 11 11 12 13 13 14 15 15 16 17 17 17 17 17 17 15 16 17 16 17 17 17 16 15 17 16 16 16 14 16
1 2 1 1 2 3 4 6 7 8 8 9 10 11 11 12 12 13 14 15 16 17 18 18 19 19 19 18 18 18 18 18 19 19 18 18 20 18 20 19 17 19 17
3 3 3 3 3 4 5 5 6 7 8 9 10 10 11 12 12 13 14 16 17 19 19 20 20 20 20 21 22 22 22 23 22 22 22 19 20 22 22 23 20 20 22
6 5 5 5 4 5 6 8 9 9 10 12 12 13 14 15 16 17 17 18 19 20 22 23 24 24 24 23 24 25 25 25 26 27 26 24 23 23 25 24 25 23 22
7 6 5 4 5 6 6 6 8 10 12 14 16 17 18 19 20 20 21 21 22 23 24 25 27 28 29 30 29 28 28 29 28 29 30 30 27 27 27 26 27 28 27
8 7 5 4 4 3 5 7 9 11 12 14 16 18 19 21 22 23 24 24 25 26 27 28 29 29 30 31 32 32 32 32 31 31 31 32 32 30 29 30 28 30 31
8 7 4 3 2 3 5 7 9 11 13 15 17 19 21 23 25 27 28 29 30 31 32 33 34 34 35 36 37 35 35 35 35 34 33 32 32 32 32 30 32 30 30
8 6 4 2 1 4 6 8 10 12 14 16 18 20 22 25 27 30 31 33 34 34 35 36 36 37 39 40 41 41 40 39 37 37 35 33 33 33 33 32 32 34 33
8 6 3 2 3 4 7 8 10 12 14 17 20 23 25 27 28 29 30 31 32 33 33 34 36 36 37 40 44 45 45 43 41 39 37 35 33 32 33 33 34 34 35
8 6 5 4 5 6 8 10 11 13 18 21 25 27 28 29 30 30 31 32 33 33 32 32 34 36 36 37 42 45 46 42 36 33 31 30 28 26 28 31 31 33 35
10 8 6 5 7 8 10 14 17 20 22 24 26 27 28 28 28 27 28 28 29 31 32 32 33 36 35 33 34 35 27 39 20 12 13 19 22 24 25 24 27 28 30
10 7 5 6 8 11 14 16 20 23 27 29 28 28 27 27 26 27 27 28 29 30 32 32 32 32 34 33 29 21 13 12 36 27 18 27 30 26 24 26 25 23 25
10 7 6 7 9 12 16 20 24 26 28 30 31 31 30 29 29 29 29 29 30 31 31 32 31 32 32 34 32 27 24 25 18 31 19 29 42 40 40 40 37 34 31
10 8 7 8 10 13 17 21 24 27 28 30 31 32 32 30 29 30 30 31 32 34 35 35 35 35 34 33 31 31 31 29 26 29 44 27 25 32 40 43 42 43 41
11 9 8 8 11 15 19 22 25 27 29 30 31 33 34 33 32 31 32 33 33 34 35 36 37 37 37 36 34 32 30 28 26 27 35 41 38 32 39 42 42 41 40
Wind_Direction
51 60 51 55 70 83 83 79 76 71 66 60 61 62 62 56 53 57 53 46 42 41 39 35 34 35 49 56 62 67 66 63 67 77 90 107 119 130 128 128 128 122 114
49 64 67 65 69 70 74 75 71 70 67 64 60 58 58 58 53 48 45 44 42 39 40 38 38 38 36 40 45 56 57 58 61 61 74 92 116 125 137 138 138 136 122
59 44 63 73 78 81 72 69 66 64 64 60 58 57 52 51 50 45 37 34 36 36 35 36 35 36 38 38 30 29 31 33 40 50 48 65 103 134 145 151 151 147 142
65 62 71 57 62 71 75 86 78 78 75 73 70 60 43 40 36 38 35 30 29 29 31 28 30 27 26 29 26 9 350 359 16 35 38 48 58 89 151 175 173 166 180
67 58 79 62 70 77 80 81 80 70 64 60 62 66 70 49 40 31 27 27 22 17 17 18 18 19 16 13 12 0 330 309 321 345 359 336 299 303 281 226 205 190 245
73 70 65 76 68 63 60 48 40 39 38 35 28 18 16 26 32 27 34 31 19 13 8 1 359 0 357 354 351 346 343 321 293 285 289 303 293 273 273 260 249 255 256
68 71 72 78 75 59 53 50 39 36 34 30 25 18 6 1 356 349 350 348 343 339 338 342 350 343 339 336 329 328 322 321 318 301 281 273 278 278 272 259 258 248 235
71 58 59 68 57 39 30 31 31 24 20 15 13 12 9 1 351 344 341 335 329 329 329 329 327 327 330 322 315 310 309 309 303 304 297 281 269 270 271 268 254 248 242
39 41 16 33 31 23 28 32 29 22 15 9 2 359 357 351 345 340 337 335 332 329 327 326 324 318 312 310 306 299 294 295 299 296 292 290 275 268 266 284 252 251 246
70 51 31 17 8 4 3 1 355 350 346 341 338 336 331 328 322 320 319 320 323 326 328 329 328 324 314 304 299 292 290 290 289 289 289 283 280 268 265 264 262 245 248
49 12 15 345 336 331 330 326 319 315 316 316 316 320 318 316 317 317 318 318 319 319 320 319 317 315 313 309 296 292 294 293 290 289 287 283 272 270 264 263 271 247 246
36 7 343 337 336 324 311 308 306 309 316 322 324 322 322 325 325 324 318 313 307 305 304 305 305 305 305 302 296 292 290 289 290 288 285 282 277 267 263 264 260 258 244
325 275 263 329 352 358 7 6 352 351 350 350 349 348 349 342 333 326 322 314 311 308 305 302 298 297 296 296 292 291 290 290 289 283 282 279 277 276 266 262 260 255 251
189 153 121 83 53 36 25 14 18 14 15 8 7 2 355 351 348 342 337 331 325 321 319 317 313 308 301 296 292 288 286 283 283 282 280 276 275 275 276 264 259 258 252
151 123 106 80 61 50 39 34 26 19 14 13 5 1 357 353 348 344 339 334 330 326 321 318 315 312 307 301 297 293 288 283 280 279 277 275 272 268 269 268 259 258 260
141 134 119 108 75 54 34 23 17 13 9 1 356 353 349 346 343 340 337 333 330 326 322 319 316 312 309 305 300 295 293 290 286 282 280 277 271 269 265 265 259 256 258
149 131 119 99 72 39 23 15 9 2 356 351 351 349 346 343 341 338 334 330 326 322 318 314 310 307 303 299 297 295 292 288 286 284 281 280 279 272 266 263 260 256 254
148 147 140 116 76 24 7 0 357 354 352 349 348 347 343 339 335 332 328 325 322 318 314 311 308 305 303 301 297 294 291 289 286 284 281 280 279 277 271 264 261 260 259
164 166 164 136 24 0 354 350 347 347 346 346 344 338 334 331 328 324 321 318 315 314 313 311 309 308 305 302 298 294 290 287 286 284 283 280 276 274 273 268 262 261 260
181 184 198 252 303 321 333 338 340 340 339 339 336 334 331 327 324 320 318 316 315 314 313 312 311 308 310 307 303 299 294 290 288 285 282 281 278 272 267 266 264 260 259
194 208 230 253 286 301 306 310 315 330 336 335 335 333 330 327 325 324 323 323 322 319 319 318 316 315 314 313 312 303 302 302 297 286 280 276 271 267 265 261 259 258 258
206 221 245 280 301 314 327 335 338 334 332 331 331 330 329 328 328 326 324 320 319 318 318 318 318 317 317 319 322 321 319 311 291 282 268 266 267 262 256 255 254 252 253
211 227 255 286 310 325 334 333 330 329 330 330 327 327 331 332 330 327 325 322 320 317 316 316 315 314 314 314 315 311 318 301 310 307 281 267 271 269 266 259 256 254 251
213 231 262 290 311 322 330 334 334 332 331 332 332 332 333 332 331 328 325 322 321 318 316 314 312 309 307 307 307 303 289 285 300 306 288 283 287 282 278 273 268 270 267
214 232 257 286 309 323 329 329 329 329 331 331 330 329 328 327 324 323 321 321 321 319 317 315 312 309 306 302 298 295 292 288 280 275 291 294 291 289 288 285 281 276 275
214 233 259 289 308 319 324 326 328 330 329 329 328 325 325 324 323 322 321 319 317 315 312 309 308 305 303 299 295 290 283 280 278 277 281 288 290 291 292 289 288 283 280